User: anonymous   Login
Location: Enborne
(51.3833°N, 1.3667°W)
Time: 07:40:20
(UTC+00:00)
Language:

CZ-4 R/B - Orbit

View from above orbital plane
View from above orbital plane
View from above satellite
View from above satellite

Ground track
Ground track

The orbit data is extracted from the following two-line orbital elements,

1 29507U 06046C   20336.79455038  .00000638  00000-0  54315-4 0  9993
2 29507  97.7198 357.9573 0047408 325.3921  34.4220 15.00583189770462
Epoch (UTC): 01 December 2020 19:04:09
Eccentricity: 0.0047408
inclination: 97.7198°
perigee height: 532 km
apogee height: 598 km
right ascension of ascending node: 357.9573°
argument of perigee: 325.3921°
revolutions per day: 15.00583189
mean anomaly at epoch: 34.4220°
orbit number at epoch: 77046

The dashed part of the orbit path shows where the satellite is in the earth's shadow,  

DLR